Weather History for Chippewa, MI

Change the Weather History Date:

Tuesday, August 20, 2013

  Actual Average Record
Temperature  
Mean Temperature 73 °F -  
Max Temperature 82 °F 75 °F 85 °F (1983)
Min Temperature 64 °F 47 °F 35 °F (1981)
Cooling Degree Days 8    
Growing Degree Days 23 (Base 50)    
Moisture  
Dew Point 65 °F    
Average Humidity 78    
Maximum Humidity 100    
Minimum Humidity 51    
Precipitation  
Precipitation 0.00 in - - ()
Sea Level Pressure  
Sea Level Pressure 29.99 in    
Wind  
Wind Speed 6 mph (SW)    
Max Wind Speed 15 mph    
Max Gust Speed 22 mph    
Visibility 9 miles    
Events      
Averages and records for this station are not official NWS values.
T = Trace of Precipitation, MM = Missing Value Source: NWS Daily Summary

Daily Weather History Graph

Daily Weather History Graph

Search for Another Location

Airport:

Trip Planner

Search our weather history database for the weather conditions in past years. The results will help you decide how hot, cold, wet, or windy it might be!

Date:

Astronomy

Aug. 20, 2013 Rise Set
Actual Time 6:43 AM EDT 8:38 PM EDT
Civil Twilight 6:11 AM EDT 9:10 PM EDT
Nautical Twilight 5:31 AM EDT 9:49 PM EDT
Astronomical Twilight 4:48 AM EDT 10:32 PM EDT
Moon 8:05 PM EDT (8/20) 6:13 AM EDT (8/20)
Length of Visible Light 14h 58m
Length of Day
13h 54m
Full, 100% of the Moon is Illuminated
Aug 20
Full
Aug 20
Full
Aug 28
Last Quarter
Sep 5
New
Sep 12
First Quarter

Hourly Weather History & Observations

Time (EDT) Temp. Heat Index Dew Point Humidity Pressure Visibility Wind Dir Wind Speed Gust Speed Precip Events Conditions
12:15 AM 66.2 °F - 62.6 °F 88% 29.96 in 10.0 mi SSW 4.6 mph - N/A   Clear
12:35 AM 66.2 °F - 62.6 °F 88% 29.96 in 10.0 mi SW 3.5 mph - N/A   Clear
12:55 AM 66.2 °F - 62.6 °F 88% 29.96 in 10.0 mi SW 4.6 mph - N/A   Clear
1:15 AM 66.2 °F - 62.6 °F 88% 29.96 in 10.0 mi SW 3.5 mph - N/A   Clear
1:35 AM 66.2 °F - 62.6 °F 88% 29.97 in 10.0 mi SW 4.6 mph - N/A   Scattered Clouds
1:55 AM 66.2 °F - 64.4 °F 94% 29.97 in 10.0 mi SW 3.5 mph - N/A   Scattered Clouds
2:15 AM 66.2 °F - 64.4 °F 94% 29.96 in 10.0 mi SW 4.6 mph - N/A   Clear
2:35 AM 64.4 °F - 64.4 °F 100% 29.96 in 10.0 mi SW 4.6 mph - N/A   Clear
2:55 AM 64.4 °F - 64.4 °F 100% 29.96 in 10.0 mi SW 3.5 mph - N/A   Clear
3:15 AM 64.4 °F - 64.4 °F 100% 29.96 in 10.0 mi Calm Calm - N/A   Clear
3:35 AM 64.4 °F - 64.4 °F 100% 29.96 in 10.0 mi SW 3.5 mph - N/A   Clear
3:55 AM 64.4 °F - 64.4 °F 100% 29.96 in 8.0 mi SSW 3.5 mph - N/A   Clear
4:15 AM 64.4 °F - 64.4 °F 100% 29.96 in 7.0 mi Calm Calm - N/A   Partly Cloudy
4:35 AM 64.4 °F - 64.4 °F 100% 29.96 in 7.0 mi SW 4.6 mph - N/A   Clear
4:55 AM 64.4 °F - 64.4 °F 100% 29.96 in 7.0 mi SW 3.5 mph - N/A   Clear
5:15 AM 64.4 °F - 64.4 °F 100% 29.96 in 6.0 mi SSW 3.5 mph - N/A   Clear
5:35 AM 64.4 °F - 64.4 °F 100% 29.97 in 5.0 mi SW 3.5 mph - N/A   Clear
5:55 AM 64.4 °F - 64.4 °F 100% 29.97 in 5.0 mi SW 4.6 mph - N/A   Clear
6:15 AM 64.4 °F - 64.4 °F 100% 29.98 in 5.0 mi SW 4.6 mph - N/A   Clear
6:35 AM 64.4 °F - 64.4 °F 100% 29.98 in 3.0 mi SW 4.6 mph - N/A   Clear
6:55 AM 64.4 °F - 64.4 °F 100% 29.99 in 4.0 mi SW 3.5 mph - N/A   Partly Cloudy
7:15 AM 64.4 °F - 62.6 °F 94% 29.99 in 4.0 mi SW 4.6 mph - N/A   Partly Cloudy
7:35 AM 66.2 °F - 64.4 °F 94% 29.99 in 4.0 mi SW 3.5 mph - N/A   Clear
7:55 AM 66.2 °F - 64.4 °F 94% 30.00 in 5.0 mi SW 3.5 mph - N/A   Clear
8:15 AM 68.0 °F - 66.2 °F 94% 30.00 in 7.0 mi SW 3.5 mph - N/A   Clear
8:35 AM 69.8 °F - 66.2 °F 88% 30.01 in 10.0 mi SW 3.5 mph - N/A   Clear
8:55 AM 69.8 °F - 66.2 °F 88% 30.01 in 10.0 mi SW 6.9 mph - N/A   Partly Cloudy
9:15 AM 71.6 °F - 66.2 °F 83% 30.01 in 10.0 mi SW 8.1 mph - N/A   Mostly Cloudy
9:35 AM 71.6 °F - 66.2 °F 83% 30.02 in 10.0 mi SW 8.1 mph - N/A   Overcast
9:55 AM 73.4 °F - 66.2 °F 78% 30.02 in 10.0 mi SW 6.9 mph - N/A   Scattered Clouds
10:15 AM 75.2 °F - 68.0 °F 78% 30.02 in 10.0 mi SSW 4.6 mph - N/A   Clear
10:35 AM 75.2 °F - 66.2 °F 73% 30.02 in 10.0 mi WSW 10.4 mph - N/A   Clear
10:55 AM 77.0 °F - 68.0 °F 74% 30.02 in 10.0 mi SW 5.8 mph - N/A   Clear
11:15 AM 78.8 °F - 68.0 °F 69% 30.02 in 10.0 mi SSW 8.1 mph - N/A   Clear
11:35 AM 78.8 °F - 68.0 °F 69% 30.02 in 10.0 mi South 9.2 mph - N/A   Clear
11:55 AM 78.8 °F - 68.0 °F 69% 30.02 in 10.0 mi SSW 8.1 mph 16.1 mph N/A   Clear
12:15 PM 78.8 °F - 68.0 °F 69% 30.02 in 10.0 mi South 8.1 mph - N/A   Clear
12:35 PM 78.8 °F - 69.8 °F 74% 30.02 in 10.0 mi SSW 10.4 mph - N/A   Clear
12:55 PM 78.8 °F - 68.0 °F 69% 30.02 in 10.0 mi WSW 12.7 mph 18.4 mph N/A   Clear
1:15 PM 78.8 °F - 68.0 °F 69% 30.02 in 10.0 mi SW 10.4 mph 17.3 mph N/A   Clear
1:35 PM 80.6 °F 83.2 °F 68.0 °F 65% 30.02 in 10.0 mi SW 9.2 mph 16.1 mph N/A   Clear
1:55 PM 80.6 °F 83.2 °F 68.0 °F 65% 30.02 in 10.0 mi SW 11.5 mph 17.3 mph N/A   Clear
2:15 PM 80.6 °F 83.2 °F 68.0 °F 65% 30.02 in 10.0 mi SW 10.4 mph 16.1 mph N/A   Partly Cloudy
2:35 PM 80.6 °F 82.7 °F 66.2 °F 61% 30.01 in 6.0 mi WSW 11.5 mph 18.4 mph N/A   Clear
2:55 PM 80.6 °F 82.7 °F 66.2 °F 61% 30.01 in 10.0 mi SSW 8.1 mph 18.4 mph N/A   Clear
3:15 PM 82.4 °F 84.6 °F 66.2 °F 58% 30.01 in 10.0 mi SSW 11.5 mph 16.1 mph N/A   Clear
3:35 PM 80.6 °F 82.3 °F 64.4 °F 58% 30.01 in 10.0 mi SW 11.5 mph 20.7 mph N/A   Clear
3:55 PM 80.6 °F 82.3 °F 64.4 °F 58% 30.01 in 10.0 mi SW 10.4 mph 20.7 mph N/A   Clear
4:15 PM 80.6 °F 82.3 °F 64.4 °F 58% 30.01 in 10.0 mi SW 15.0 mph 20.7 mph N/A   Clear
4:35 PM 80.6 °F 82.3 °F 64.4 °F 58% 30.01 in 10.0 mi SSW 12.7 mph 18.4 mph N/A   Clear
4:55 PM 80.6 °F 81.8 °F 62.6 °F 54% 30.01 in 10.0 mi SW 13.8 mph 19.6 mph N/A   Clear
5:15 PM 80.6 °F 81.8 °F 62.6 °F 54% 30.00 in 10.0 mi SW 13.8 mph 21.9 mph N/A   Clear
5:35 PM 80.6 °F 81.5 °F 60.8 °F 51% 30.00 in 10.0 mi SSW 11.5 mph 21.9 mph N/A   Clear
5:55 PM 80.6 °F 81.5 °F 60.8 °F 51% 30.00 in 10.0 mi SW 10.4 mph 17.3 mph N/A   Clear
6:15 PM 80.6 °F 81.5 °F 60.8 °F 51% 30.00 in 10.0 mi SW 9.2 mph 17.3 mph N/A   Clear
6:35 PM 80.6 °F 81.5 °F 60.8 °F 51% 30.00 in 10.0 mi SSW 9.2 mph 18.4 mph N/A   Clear
6:55 PM 78.8 °F - 62.6 °F 57% 30.00 in 10.0 mi SSW 8.1 mph - N/A   Clear
7:15 PM 78.8 °F - 62.6 °F 57% 30.00 in 10.0 mi SW 6.9 mph - N/A   Clear
7:35 PM 78.8 °F - 62.6 °F 57% 29.99 in 10.0 mi SSW 5.8 mph - N/A   Clear
7:55 PM 75.2 °F - 62.6 °F 65% 29.99 in 10.0 mi SSW 6.9 mph - N/A   Clear
8:15 PM 75.2 °F - 64.4 °F 69% 29.99 in 10.0 mi SW 6.9 mph - N/A   Clear
8:35 PM 73.4 °F - 64.4 °F 73% 29.99 in 10.0 mi SSW 4.6 mph - N/A   Clear
8:55 PM 73.4 °F - 64.4 °F 73% 30.00 in 10.0 mi SSW 4.6 mph - N/A   Clear
9:15 PM 71.6 °F - 64.4 °F 78% 30.00 in 10.0 mi SSW 3.5 mph - N/A   Clear
9:35 PM 71.6 °F - 64.4 °F 78% 30.00 in 10.0 mi SSW 4.6 mph - N/A   Clear
9:55 PM 71.6 °F - 64.4 °F 78% 30.00 in 10.0 mi South 4.6 mph - N/A   Clear
10:15 PM 71.6 °F - 64.4 °F 78% 30.00 in 10.0 mi SSW 4.6 mph - N/A   Clear
10:35 PM 71.6 °F - 64.4 °F 78% 30.00 in 10.0 mi SW 4.6 mph - N/A   Clear
10:55 PM 71.6 °F - 64.4 °F 78% 30.00 in 10.0 mi SSW 5.8 mph - N/A   Clear
11:15 PM 71.6 °F - 64.4 °F 78% 30.00 in 10.0 mi South 5.8 mph - N/A   Clear
11:35 PM 69.8 °F - 64.4 °F 83% 30.00 in 10.0 mi SSW 3.5 mph - N/A   Clear
11:55 PM 69.8 °F - 64.4 °F 83% 30.01 in 10.0 mi Calm Calm - N/A   Clear